TimeEDT,TemperatureF,Dew PointF,Humidity,Sea Level PressureIn,VisibilityMPH,Wind Direction,Wind SpeedMPH,Gust SpeedMPH,PrecipitationIn,Events,Conditions,WindDirDegrees,DateUTC
12:15 AM,48.2,44.6,87,30.10,10.0,ENE,5.8,-,N/A,,Overcast,60,2012-10-07 04:15:00
12:35 AM,48.2,44.6,87,30.11,9.0,NNW,4.6,-,N/A,,Overcast,340,2012-10-07 04:35:00
12:55 AM,48.2,44.6,87,30.10,8.0,North,5.8,-,N/A,,Overcast,350,2012-10-07 04:55:00
1:15 AM,48.2,44.6,87,30.11,10.0,NNW,6.9,-,N/A,,Overcast,340,2012-10-07 05:15:00
1:35 AM,46.4,44.6,93,30.11,4.0,North,9.2,-,N/A,,Mostly Cloudy,10,2012-10-07 05:35:00
1:55 AM,46.4,44.6,93,30.10,9.0,North,8.1,-,N/A,,Mostly Cloudy,360,2012-10-07 05:55:00
2:15 AM,46.4,44.6,93,30.12,3.0,North,6.9,-,N/A,,Mostly Cloudy,360,2012-10-07 06:15:00
2:35 AM,46.4,44.6,93,30.13,6.0,NNW,4.6,-,N/A,,Mostly Cloudy,340,2012-10-07 06:35:00
2:55 AM,46.4,44.6,93,30.09,10.0,NE,4.6,-,N/A,,Mostly Cloudy,50,2012-10-07 06:55:00
3:15 AM,46.4,44.6,93,30.09,10.0,Calm,Calm,-,N/A,,Mostly Cloudy,0,2012-10-07 07:15:00
3:35 AM,46.4,44.6,93,30.10,10.0,Calm,Calm,-,N/A,,Mostly Cloudy,0,2012-10-07 07:35:00
3:55 AM,46.4,44.6,93,30.10,10.0,North,4.6,-,N/A,,Overcast,10,2012-10-07 07:55:00
4:15 AM,46.4,44.6,93,30.11,10.0,Variable,4.6,-,N/A,,Overcast,0,2012-10-07 08:15:00
4:35 AM,46.4,44.6,93,30.11,10.0,NNW,5.8,-,N/A,,Overcast,330,2012-10-07 08:35:00
4:55 AM,46.4,44.6,93,30.10,10.0,NNW,3.5,-,N/A,,Overcast,340,2012-10-07 08:55:00
5:15 AM,46.4,44.6,93,30.11,10.0,NNW,3.5,-,N/A,,Overcast,340,2012-10-07 09:15:00
5:35 AM,46.4,44.6,93,30.11,10.0,North,4.6,-,N/A,,Overcast,350,2012-10-07 09:35:00
5:55 AM,46.4,44.6,93,30.10,10.0,North,4.6,-,N/A,,Overcast,350,2012-10-07 09:55:00
6:15 AM,46.4,42.8,87,30.10,10.0,NNW,4.6,-,N/A,,Overcast,340,2012-10-07 10:15:00
6:35 AM,46.4,42.8,87,30.10,10.0,Calm,Calm,-,N/A,,Overcast,0,2012-10-07 10:35:00
6:55 AM,46.4,42.8,87,30.11,10.0,NNW,4.6,-,N/A,,Overcast,330,2012-10-07 10:55:00
7:15 AM,46.4,42.8,87,30.11,10.0,NNW,5.8,-,N/A,,Overcast,340,2012-10-07 11:15:00
7:55 AM,44.6,42.8,93,30.13,10.0,NNW,6.9,-,N/A,,Overcast,340,2012-10-07 11:55:00
8:15 AM,44.6,42.8,93,30.13,10.0,NNW,5.8,-,N/A,,Overcast,340,2012-10-07 12:15:00
8:35 AM,44.6,42.8,93,30.14,10.0,North,6.9,-,N/A,,Overcast,350,2012-10-07 12:35:00
8:55 AM,46.4,42.8,87,30.15,10.0,NNW,5.8,-,N/A,,Overcast,340,2012-10-07 12:55:00
9:15 AM,46.4,42.8,87,30.15,10.0,North,8.1,-,N/A,,Overcast,360,2012-10-07 13:15:00
9:55 AM,46.4,42.8,87,30.17,10.0,NNE,5.8,-,N/A,,Overcast,20,2012-10-07 13:55:00
10:15 AM,46.4,42.8,87,30.19,10.0,North,6.9,-,N/A,,Overcast,360,2012-10-07 14:15:00
10:35 AM,46.4,42.8,87,30.19,10.0,North,5.8,-,N/A,,Overcast,360,2012-10-07 14:35:00
10:55 AM,46.4,42.8,87,30.19,10.0,North,6.9,-,N/A,,Overcast,350,2012-10-07 14:55:00
11:15 AM,46.4,42.8,87,30.20,10.0,North,4.6,-,N/A,,Overcast,360,2012-10-07 15:15:00
11:35 AM,46.4,42.8,87,30.20,10.0,Variable,5.8,-,N/A,,Overcast,0,2012-10-07 15:35:00
11:55 AM,48.2,42.8,82,30.21,10.0,North,6.9,-,N/A,,Overcast,350,2012-10-07 15:55:00
12:15 PM,48.2,42.8,82,30.21,10.0,North,8.1,-,N/A,,Overcast,360,2012-10-07 16:15:00
12:35 PM,48.2,41.0,76,30.22,10.0,NNW,6.9,-,N/A,,Overcast,330,2012-10-07 16:35:00
12:55 PM,50.0,42.8,76,30.22,10.0,NW,6.9,-,N/A,,Overcast,320,2012-10-07 16:55:00
1:15 PM,50.0,42.8,76,30.20,10.0,NNW,6.9,-,N/A,,Overcast,340,2012-10-07 17:15:00
1:35 PM,51.8,42.8,71,30.19,10.0,Calm,Calm,-,N/A,,Overcast,0,2012-10-07 17:35:00
1:55 PM,51.8,41.0,67,30.18,10.0,ENE,8.1,-,N/A,,Overcast,60,2012-10-07 17:55:00
2:15 PM,53.6,41.0,62,30.17,10.0,ENE,6.9,-,N/A,,Mostly Cloudy,60,2012-10-07 18:15:00
2:35 PM,53.6,41.0,62,30.16,10.0,NE,4.6,-,N/A,,Partly Cloudy,50,2012-10-07 18:35:00
2:55 PM,53.6,39.2,58,30.16,10.0,North,6.9,-,N/A,,Partly Cloudy,360,2012-10-07 18:55:00
3:15 PM,55.4,39.2,54,30.14,10.0,NE,8.1,-,N/A,,Clear,40,2012-10-07 19:15:00
3:35 PM,55.4,39.2,54,30.14,10.0,NNE,10.4,-,N/A,,Clear,20,2012-10-07 19:35:00
3:55 PM,57.2,37.4,48,30.14,10.0,North,8.1,-,N/A,,Clear,360,2012-10-07 19:55:00
4:15 PM,57.2,37.4,48,30.13,10.0,North,5.8,-,N/A,,Clear,360,2012-10-07 20:15:00
4:35 PM,57.2,37.4,48,30.13,10.0,North,8.1,-,N/A,,Clear,10,2012-10-07 20:35:00
4:55 PM,57.2,37.4,48,30.13,10.0,North,9.2,-,N/A,,Clear,350,2012-10-07 20:55:00
5:15 PM,57.2,37.4,48,30.13,10.0,NNE,10.4,-,N/A,,Clear,30,2012-10-07 21:15:00
5:35 PM,57.2,37.4,48,30.12,10.0,NNE,11.5,-,N/A,,Clear,30,2012-10-07 21:35:00
5:55 PM,55.4,39.2,54,30.13,10.0,North,8.1,-,N/A,,Clear,10,2012-10-07 21:55:00
6:15 PM,55.4,39.2,54,30.12,10.0,NNE,4.6,-,N/A,,Clear,30,2012-10-07 22:15:00
6:35 PM,53.6,39.2,58,30.13,10.0,NNE,6.9,-,N/A,,Clear,20,2012-10-07 22:35:00
6:55 PM,53.6,39.2,58,30.13,10.0,NNE,5.8,-,N/A,,Clear,30,2012-10-07 22:55:00
7:15 PM,51.8,41.0,67,30.13,10.0,NE,3.5,-,N/A,,Clear,40,2012-10-07 23:15:00
7:35 PM,51.8,41.0,67,30.14,10.0,Calm,Calm,-,N/A,,Clear,0,2012-10-07 23:35:00
7:55 PM,50.0,41.0,71,30.14,10.0,Calm,Calm,-,N/A,,Clear,0,2012-10-07 23:55:00
8:15 PM,48.2,42.8,82,30.15,10.0,Calm,Calm,-,N/A,,Clear,0,2012-10-08 00:15:00
8:55 PM,44.6,42.8,93,30.15,10.0,Calm,Calm,-,N/A,,Clear,0,2012-10-08 00:55:00
9:15 PM,46.4,42.8,87,30.16,10.0,Calm,Calm,-,N/A,,Clear,0,2012-10-08 01:15:00
9:35 PM,44.6,42.8,93,30.16,10.0,Calm,Calm,-,N/A,,Clear,0,2012-10-08 01:35:00
9:55 PM,44.6,42.8,93,30.16,10.0,Calm,Calm,-,N/A,,Clear,0,2012-10-08 01:55:00
10:15 PM,44.6,42.8,93,30.16,10.0,Calm,Calm,-,N/A,,Clear,0,2012-10-08 02:15:00
10:35 PM,44.6,42.8,93,30.14,10.0,Calm,Calm,-,N/A,,Clear,0,2012-10-08 02:35:00
10:55 PM,44.6,42.8,93,30.15,10.0,Calm,Calm,-,N/A,,Clear,0,2012-10-08 02:55:00
11:15 PM,44.6,42.8,93,30.13,10.0,Calm,Calm,-,N/A,,Clear,0,2012-10-08 03:15:00
11:35 PM,44.6,42.8,93,30.15,10.0,WNW,3.5,-,N/A,,Clear,290,2012-10-08 03:35:00
11:55 PM,44.6,42.8,93,30.15,10.0,WNW,3.5,-,N/A,,Clear,290,2012-10-08 03:55:00